Location: Newark
(44.6394°N, 22.2943°E)
Time: 10:33:20
(UTC+00:00)

Envisat - Visible Passes

Search period start: 31 March 2023 00:00
Search period end: 10 April 2023 00:00
Orbit: 763 x 765 km, 98.2° (Epoch: 30 March)

Date Brightness Start Highest point End Pass type
(mag) Time Alt. Az. Time Alt. Az. Time Alt. Az.
31 Mar 3.1 02:28:50 10° NNE 02:33:56 74° ESE 02:39:00 10° S visible
01 Apr 4.5 01:52:05 10° NNE 01:56:42 34° E 02:01:17 10° SSE visible
01 Apr 3.8 03:31:10 10° N 03:35:38 32° WNW 03:40:05 10° SW visible
02 Apr 5.6 01:16:12 10° NE 01:19:15 16° E 01:22:19 10° SE visible
02 Apr 3.0 02:53:41 10° N 02:58:44 67° WNW 03:03:45 10° SSW visible
03 Apr 3.5 02:16:36 10° NNE 02:21:38 57° E 02:26:36 10° S visible
04 Apr 4.9 01:40:03 10° NE 01:44:20 27° E 01:48:34 10° SSE visible
04 Apr 3.5 03:18:42 10° N 03:23:26 40° WNW 03:28:08 10° SW visible
05 Apr 5.7 01:04:49 10° ENE 01:06:49 12° E 01:08:47 10° ESE visible
05 Apr 2.9 02:41:21 10° NNE 02:46:28 85° WNW 02:51:32 10° SSW visible
06 Apr 4.0 02:04:25 10° NNE 02:09:17 44° E 02:14:08 10° S visible
07 Apr 5.2 01:28:07 10° NE 01:31:54 21° E 01:35:42 10° SE visible
07 Apr 3.2 03:06:17 10° N 03:11:12 51° WNW 03:16:05 10° SW visible
08 Apr 3.1 02:29:03 10° NNE 02:34:09 76° ESE 02:39:14 10° S visible
09 Apr 4.5 01:52:17 10° NNE 01:56:55 35° E 02:01:31 10° SSE visible
